Tracking 18840 objects as of 19-November-2017
HD Live streaming from Space Station
objects crossing your sky now

FENGYUN 1C DEB

Track FENGYUN 1C DEB now!
10-day predictions


NORAD ID: 35145
Int'l Code: 1999-025DLZ
Perigee: 480.8 km
Apogee: 641.3 km
Inclination: 99.6 °
Period: 95.7 minutes
Semi major axis: 6932 km
RCS: 0.0097 m2 (small)
Launch date: May 10, 1999
Source: People's Republic of China (PRC)
Launch site: Taiyaun Space Center, China (TSC)

Note: This is SATELLITE DEBRIS
aabbcc
Your satellite tracking list
Your tracking list is empty




NASA's NSSDC Master Catalog

Two Line Element Set (TLE):
1 35145U 99025DLZ 17323.06378542  .00002471  00000-0  15983-3 0  9997
2 35145  99.6024  42.7924 0115765  45.8344 315.2320 15.04208306531061
Source of the keplerian elements: AFSPC